{"data":{"norad_id":59673,"epoch":"2026-05-24T22:14:57.412896Z","epoch_age_seconds":91510,"freshness":"FRESH","line1":"1 59673U 24084V   26144.92705339  .00002006  00000+0  82412-4 0  9991","line2":"2 59673  43.0008 331.1573 0001951 264.3820  95.6810 15.27580158116033","mean_motion":15.27580158,"eccentricity":0.0001951,"inclination_deg":43.0008,"raan_deg":331.1573,"arg_perigee_deg":264.382,"mean_anomaly_deg":95.681,"bstar":8.2412e-5,"rev_number":11603,"period_min":94.266738963495,"perigee_km":481.71000561582,"apogee_km":484.38724024589,"semimajor_km":6861.1856229309,"source":"CELESTRAK","updated_at":"2026-05-25T13:38:19.021784Z"}}